Regional Weather Roundup
Issued by NWS

Current Version | Previous Version | Text Only | Print | Product List | Glossary On
Versions: 1 2 3 4 5 6 7 8 9 10 11 12 13 14 15 16 17 18 19 20 21 22 23 24 25 26 27 28 29 30 31 32 33 34 35 36 37 38 39 40 41 42 43 44 45 46 47 48 49 50
000
ASUS43 KLSX 021110
RWRMO

WEATHER SUMMARY FOR MISSOURI
NATIONAL WEATHER SERVICE SPRINGFIELD MO
500 AM CST THU FEB 02 2023

NOTE: "FAIR" INDICATES FEW OR NO CLOUDS BELOW 12,000 FEET WITH NO
       SIGNIFICANT WEATHER AND/OR OBSTRUCTIONS TO VISIBILITY.
       CURRENT SKY AND/OR WEATHER CONDITIONS ARE NOT AVAILABLE FOR
       CHILLICOTHE AND FARMINGTON.

MOZ001>031-035>038-043-044-053-054-021200-
...NORTHERN AND WESTERN MISSOURI...

CITY           SKY/WX    TMP DP  RH WIND       PRES   REMARKS
KANSAS CTY INT PTCLDY    24  13  62 SW9       30.21S WCI  14
KANSAS C DTWN  CLEAR     24  14  65 W5        30.23F WCI  18
LEE`S SUMMIT   PTCLDY    22  13  68 W9        30.22F WCI  12
ST JOSEPH      CLEAR     20  13  74 S5        30.22S WCI  13
CHILLICOTHE      N/A     19  14  81 CALM      30.22S
KIRKSVILLE     CLEAR     23  12  62 W8        30.17F WCI  14

$$
MOZ066>068-077>081-088>096-101>105-021200-
...SOUTHWEST MISSOURI...

CITY           SKY/WX    TMP DP  RH WIND       PRES   REMARKS
SPRINGFIELD    PTCLDY    22  17  81 CALM      30.23F
JOPLIN         PTCLDY    21  15  78 SW5       30.28R WCI  15
BRANSON        MOCLDY    25  25 100 CALM      30.25S

$$
MOZ032>034-039>042-045>050-055>058-069>072-021200-
...CENTRAL MISSOURI...

CITY           SKY/WX    TMP DP  RH WIND       PRES   REMARKS
COLUMBIA       CLEAR     23  12  62 W7        30.23F WCI  15
JEFFERSON CITY CLEAR     21  14  74 CALM      30.27S
ROLLA          CLEAR     21  14  74 SW9       30.25R WCI  11
SEDALIA        PTCLDY    23  13  65 W5        30.25S WCI  17
WHITEMAN AFB   PTCLDY    21  12  68 SW5       30.22F WCI  15
WARRENSBURG    PTCLDY    21  14  73 S3        30.24S
OSAGE BEACH    CLEAR     22  15  75 SW5         N/A  WCI  16

$$
MOZ051-052-059>065-021200-
...EAST CENTRAL MISSOURI...

CITY           SKY/WX    TMP DP  RH WIND       PRES   REMARKS
ST LOUIS INTL  PTCLDY    25  13  60 SW3       30.26S
SPIRIT OF STL  CLEAR     19  14  81 CALM      30.26R
ST CHARLES     CLEAR     20  16  84 CALM      30.26S

$$
MOZ072>076-082>087-097>100-106>115-021200-
...SOUTH CENTRAL AND SOUTHEAST MISSOURI...

CITY           SKY/WX    TMP DP  RH WIND       PRES   REMARKS
CAPE GIRARDEAU CLOUDY    27  22  81 CALM      30.28F
FARMINGTON     CLEAR     21  16  81 CALM      30.25F
POPLAR BLUFF   CLOUDY    27  24  89 CALM      30.29F
WEST PLAINS    MOCLDY    23  17  78 W3        30.25R

$$



USA.gov is the U.S. government's official web portal to all federal, state and local government web resources and services.